Meteo pe oră la Bolshie Ryabinki

Astăzi, 8 Mai, Sâmbătă

Timp Temperatura Precipitaţii Vânt Presiune Umiditate
00:00 +8°C° 1.1 mm 5 m/s 739 mmHg 85%
01:00 +7°C° 1.1 mm 6 m/s 738 mmHg 89%
02:00 +7°C° 0 mm 6 m/s 738 mmHg 91%
03:00 +6°C° 0.5 mm 7 m/s 737 mmHg 92%
04:00 +8°C° 0.5 mm 7 m/s 736 mmHg 92%
05:00 +8°C° 0.5 mm 7 m/s 736 mmHg 93%
06:00 +8°C° 0.7 mm 7 m/s 735 mmHg 93%
07:00 +8°C° 0.7 mm 7 m/s 735 mmHg 94%
08:00 +8°C° 0 mm 7 m/s 735 mmHg 94%
09:00 +8°C° 1 mm 6 m/s 735 mmHg 95%
10:00 +8°C° 1 mm 6 m/s 734 mmHg 95%
11:00 +8°C° 1 mm 5 m/s 734 mmHg 96%
12:00 +9°C° 1.4 mm 5 m/s 734 mmHg 96%
13:00 +10°C° 1.4 mm 4 m/s 733 mmHg 96%
14:00 +10°C° 1.4 mm 4 m/s 733 mmHg 97%
15:00 +8°C° 0.4 mm 4 m/s 733 mmHg 96%
16:00 +9°C° 0.4 mm 3 m/s 733 mmHg 96%
17:00 +9°C° 0.4 mm 3 m/s 733 mmHg 95%
18:00 +7°C° 0.3 mm 4 m/s 733 mmHg 95%
19:00 +6°C° 0.3 mm 5 m/s 734 mmHg 95%
20:00 +4°C° 0.3 mm 6 m/s 734 mmHg 94%
21:00 +3°C° 1.3 mm 6 m/s 735 mmHg 95%
22:00 +2°C° 1.3 mm 7 m/s 736 mmHg 96%
23:00 -1°C° 1.3 mm 8 m/s 736 mmHg 96%

Mâine, 9 Mai, Duminică

Timp Temperatura Precipitaţii Vânt Presiune Umiditate
00:00 0°C° 0.8 mm 8 m/s 737 mmHg 96%
01:00 0°C° 0.8 mm 7 m/s 738 mmHg 96%
02:00 0°C° 0.8 mm 7 m/s 739 mmHg 96%
03:00 +1°C° 0.1 mm 6 m/s 739 mmHg 94%
04:00 +1°C° 0.1 mm 6 m/s 740 mmHg 92%
05:00 +1°C° 0.1 mm 5 m/s 740 mmHg 90%
06:00 +2°C° 0 mm 6 m/s 741 mmHg 87%
07:00 +3°C° 0 mm 6 m/s 742 mmHg 83%
08:00 +3°C° 0 mm 6 m/s 742 mmHg 80%
09:00 +4°C° 0 mm 6 m/s 743 mmHg 76%
10:00 +4°C° 0 mm 6 m/s 743 mmHg 73%
11:00 +5°C° 0 mm 6 m/s 744 mmHg 70%
12:00 +5°C° 0 mm 6 m/s 744 mmHg 67%
13:00 +7°C° 0 mm 6 m/s 745 mmHg 64%
14:00 +8°C° 0 mm 6 m/s 746 mmHg 61%
15:00 +8°C° 0 mm 5 m/s 746 mmHg 61%
16:00 +8°C° 0 mm 4 m/s 746 mmHg 61%
17:00 +10°C° 0 mm 4 m/s 747 mmHg 61%
18:00 +8°C° 0 mm 3 m/s 747 mmHg 66%
19:00 +7°C° 0 mm 3 m/s 748 mmHg 70%
20:00 +4°C° 0 mm 3 m/s 748 mmHg 75%
21:00 +3°C° 0 mm 3 m/s 749 mmHg 77%
22:00 +3°C° 0 mm 3 m/s 749 mmHg 79%
23:00 +2°C° 0 mm 3 m/s 749 mmHg 80%

Poimâine, 10 Mai, Luni

Timp Temperatura Precipitaţii Vânt Presiune Umiditate
00:00 +2°C° 0 mm 3 m/s 750 mmHg 80%
01:00 +1°C° 0 mm 3 m/s 750 mmHg 79%
02:00 +1°C° 0 mm 3 m/s 751 mmHg 79%
03:00 +1°C° 0 mm 3 m/s 751 mmHg 78%
04:00 +2°C° 0 mm 2 m/s 752 mmHg 77%
05:00 +2°C° 0 mm 2 m/s 752 mmHg 76%
06:00 +4°C° 0 mm 3 m/s 752 mmHg 70%
07:00 +7°C° 0 mm 3 m/s 752 mmHg 63%
08:00 +9°C° 0 mm 3 m/s 753 mmHg 56%
09:00 +10°C° 0 mm 3 m/s 753 mmHg 52%
10:00 +11°C° 0 mm 4 m/s 753 mmHg 48%
11:00 +13°C° 0 mm 4 m/s 753 mmHg 43%
12:00 +13°C° 0 mm 4 m/s 752 mmHg 43%
13:00 +13°C° 0 mm 4 m/s 752 mmHg 43%
14:00 +14°C° 0 mm 4 m/s 752 mmHg 42%
15:00 +14°C° 0 mm 4 m/s 752 mmHg 47%
16:00 +13°C° 0 mm 4 m/s 752 mmHg 52%
17:00 +13°C° 0 mm 4 m/s 752 mmHg 57%
18:00 +11°C° 0 mm 4 m/s 752 mmHg 63%
19:00 +9°C° 0 mm 3 m/s 752 mmHg 70%
20:00 +7°C° 0 mm 3 m/s 752 mmHg 76%
21:00 +7°C° 0 mm 3 m/s 752 mmHg 77%
22:00 +5°C° 0 mm 3 m/s 752 mmHg 77%
23:00 +4°C° 0 mm 3 m/s 752 mmHg 77%

11 Mai, Marţi

Timp Temperatura Precipitaţii Vânt Presiune Umiditate
00:00 +4°C° 0 mm 3 m/s 752 mmHg 78%
01:00 +4°C° 0 mm 3 m/s 752 mmHg 79%
02:00 +3°C° 0 mm 3 m/s 752 mmHg 80%
03:00 +4°C° 0 mm 4 m/s 752 mmHg 79%
04:00 +4°C° 0 mm 4 m/s 751 mmHg 78%
05:00 +3°C° 0 mm 5 m/s 751 mmHg 76%
06:00 +6°C° 0 mm 5 m/s 751 mmHg 72%
07:00 +8°C° 0 mm 6 m/s 751 mmHg 68%
08:00 +10°C° 0 mm 7 m/s 751 mmHg 63%
09:00 +11°C° 0 mm 7 m/s 751 mmHg 62%
10:00 +12°C° 0 mm 7 m/s 751 mmHg 60%
11:00 +15°C° 0 mm 7 m/s 750 mmHg 59%
12:00 +15°C° 0 mm 6 m/s 750 mmHg 61%
13:00 +16°C° 0 mm 6 m/s 750 mmHg 64%
14:00 +16°C° 0 mm 6 m/s 750 mmHg 67%
15:00 +16°C° 0 mm 5 m/s 750 mmHg 71%
16:00 +15°C° 0 mm 5 m/s 750 mmHg 75%
17:00 +14°C° 0 mm 4 m/s 750 mmHg 80%
18:00 +13°C° 0 mm 4 m/s 750 mmHg 83%
19:00 +13°C° 0 mm 3 m/s 750 mmHg 86%
20:00 +12°C° 0 mm 3 m/s 749 mmHg 90%
21:00 +12°C° 0.2 mm 3 m/s 749 mmHg 91%
22:00 +12°C° 0.2 mm 3 m/s 749 mmHg 92%
23:00 +11°C° 0.2 mm 3 m/s 748 mmHg 94%

12 Mai, Miercuri

Timp Temperatura Precipitaţii Vânt Presiune Umiditate
00:00 +12°C° 0.5 mm 2 m/s 748 mmHg 94%
01:00 +12°C° 0.5 mm 2 m/s 748 mmHg 95%
02:00 +10°C° 0.5 mm 2 m/s 747 mmHg 96%
03:00 +10°C° 0.4 mm 2 m/s 747 mmHg 96%
04:00 +9°C° 0.4 mm 2 m/s 747 mmHg 97%
05:00 +9°C° 0.4 mm 2 m/s 747 mmHg 97%
06:00 +9°C° 0.6 mm 2 m/s 747 mmHg 95%
07:00 +9°C° 0.6 mm 2 m/s 748 mmHg 93%
08:00 +9°C° 0.6 mm 2 m/s 748 mmHg 92%
09:00 +11°C° 0 mm 3 m/s 748 mmHg 83%
10:00 +13°C° 0 mm 3 m/s 748 mmHg 74%
11:00 +15°C° 0 mm 4 m/s 748 mmHg 66%
12:00 +15°C° 0 mm 4 m/s 747 mmHg 65%
13:00 +15°C° 0 mm 4 m/s 747 mmHg 65%
14:00 +16°C° 0 mm 3 m/s 747 mmHg 64%
15:00 +16°C° 0 mm 3 m/s 747 mmHg 66%
16:00 +16°C° 0 mm 3 m/s 746 mmHg 68%
17:00 +16°C° 0 mm 3 m/s 746 mmHg 69%
18:00 +14°C° 0 mm 3 m/s 746 mmHg 76%
19:00 +13°C° 0 mm 3 m/s 745 mmHg 83%
20:00 +12°C° 0 mm 3 m/s 745 mmHg 90%
21:00 +11°C° 0 mm 3 m/s 745 mmHg 92%
22:00 +12°C° 0 mm 2 m/s 745 mmHg 94%
23:00 +12°C° 0 mm 2 m/s 745 mmHg 96%

13 Mai, Joi

Timp Temperatura Precipitaţii Vânt Presiune Umiditate
00:00 +10°C° 0 mm 2 m/s 744 mmHg 96%
01:00 +10°C° 0 mm 2 m/s 744 mmHg 96%
02:00 +9°C° 0 mm 3 m/s 744 mmHg 96%
03:00 +10°C° 0 mm 3 m/s 744 mmHg 95%
04:00 +10°C° 0 mm 3 m/s 744 mmHg 95%
05:00 +10°C° 0 mm 3 m/s 743 mmHg 94%
06:00 +11°C° 0.1 mm 4 m/s 743 mmHg 91%
07:00 +12°C° 0.1 mm 4 m/s 743 mmHg 88%
08:00 +13°C° 0.1 mm 4 m/s 743 mmHg 85%
09:00 +14°C° 0.1 mm 5 m/s 743 mmHg 79%
10:00 +15°C° 0.1 mm 6 m/s 744 mmHg 72%
11:00 +17°C° 0.1 mm 6 m/s 744 mmHg 66%
12:00 +17°C° 0.1 mm 6 m/s 744 mmHg 65%
13:00 +19°C° 0.1 mm 6 m/s 744 mmHg 64%
14:00 +19°C° 0.1 mm 5 m/s 743 mmHg 63%
15:00 +19°C° 0.1 mm 4 m/s 743 mmHg 67%
16:00 +18°C° 0.1 mm 4 m/s 743 mmHg 72%
17:00 +17°C° 0.1 mm 3 m/s 743 mmHg 76%
18:00 +16°C° 0 mm 3 m/s 743 mmHg 79%
19:00 +14°C° 0 mm 3 m/s 743 mmHg 83%
20:00 +13°C° 0 mm 3 m/s 743 mmHg 86%
21:00 +13°C° 0 mm 3 m/s 743 mmHg 87%
22:00 +13°C° 0 mm 4 m/s 743 mmHg 87%
23:00 +13°C° 0 mm 4 m/s 743 mmHg 88%
Arată mai mult

Formular de consimțământ

Meteoprog și furnizorii noștri de servicii pot stoca și accesa date personale, precum cookies, identificatori de dispozitiv sau alte tehnologii similare pe dispozitivul dumneavoastră și procesa astfel de date pentru a personaliza conținutul și reclamele, dar și pentru a oferi caracteristici de social media și pentru a analiza traficul.

  • Stocarea și/sau accesarea informațiilor pe dispozitivul dumneavoastră

    Cookies, identificatori de dispozitiv sau alte informații pot fi stocate sau accesate pe dispozitiv în scopurile indicate mai sus.

  • Reclame și conținut personalizat, evaluarea reclamelor și a conținutului, informații despre audiențe și dezvoltarea produselor

    Reclamele și conținutul pot fi personalizate pe baza unui profil. Pot fi adăugate date suplimentare pentru a personaliza mai bine reclamele și conținutul. Performanța reclamelor și conținutului poate fi măsurată. Pot fi obținute informații despre utilizatorii care au văzut reclamele și conținutul. Aceste date pot fi utilizate pentru a dezvolta sau îmbunătăți experiența utilizatorilor, sistemele și software-ul.

Dând clic pe ‘Sunt de acord’, permiteți utilizarea cookie-urilor menționate, a identificatorilor de dispozitiv, balizelor web sau altor tehnologii similare. Setările pot fi modificate din browser-ul dispozitivului dumneavoastră.

În anumite scopuri, interesele legitime pot prima asupra consimțământului. Puteți citi mai multe informații în acest sens în Politica privind Confidențialitatea Datelor și Cookie.